This is the latest recevied weather packets stored in our database for station/object G1SCQ. If no packets are shown the sender has not sent any weather packets the latest 10 day(s).
| Time | Temp. | Humidity | Pressure | Rain* | Wind** | Luminosity | Snow |
|---|---|---|---|---|---|---|---|
| 1778222167 | 8.33° C | 99% | 1017.4 hPa | 0 mm | - | 78 W/m² | - |
| 1778221624 | 8.33° C | 99% | 1017.3 hPa | 0 mm | - | 63 W/m² | - |
| 1778221084 | 7.78° C | 99% | 1017.2 hPa | 0 mm | - | 52 W/m² | - |
| 1778220544 | 7.22° C | 99% | 1017 hPa | 0 mm | - | 47 W/m² | - |
| 1778220004 | 6.67° C | 99% | 1017 hPa | 0 mm | - | 43 W/m² | - |
| 1778219644 | 6.67° C | 99% | 1017.1 hPa | 0 mm | - | 40 W/m² | - |
| 1778219104 | 6.67° C | 99% | 1017 hPa | 0 mm | - | 36 W/m² | - |
| 1778218564 | 5.56° C | 99% | 1017 hPa | 0 mm | - | 33 W/m² | - |
| 1778218024 | 5° C | 99% | 1017 hPa | 0 mm | - | 30 W/m² | - |
| 1778217484 | 5.56° C | 99% | 1016.8 hPa | 0 mm | - | 26 W/m² | - |
| 1778216944 | 4.44° C | 99% | 1016.7 hPa | 0 mm | - | 22 W/m² | - |
| 1778216404 | 4.44° C | 99% | 1016.4 hPa | 0 mm | - | 19 W/m² | - |
| 1778216044 | 4.44° C | 99% | 1016.5 hPa | 0 mm | - | 17 W/m² | - |
| 1778215504 | 4.44° C | 99% | 1016.4 hPa | 0 mm | - | 13 W/m² | - |
| 1778214964 | 4.44° C | 99% | 1016.6 hPa | 0 mm | - | 9 W/m² | - |
| 1778214424 | 4.44° C | 99% | 1016.5 hPa | 0 mm | - | 6 W/m² | - |
| 1778213884 | 3.89° C | 99% | 1016.5 hPa | 0 mm | - | 3 W/m² | - |
| 1778213344 | 4.44° C | 99% | 1016.6 hPa | 0 mm | - | 1 W/m² | - |
| 1778212804 | 4.44° C | 99% | 1016.7 hPa | 0 mm | - | 0 W/m² | - |
| 1778212444 | 4.44° C | 99% | 1016.7 hPa | 0 mm | - | 0 W/m² | - |
| 1778211904 | 4.44° C | 99% | 1016.6 hPa | 0 mm | - | 0 W/m² | - |
| 1778211364 | 4.44° C | 99% | 1016.7 hPa | 0 mm | - | 0 W/m² | - |
| 1778210824 | 4.44° C | 98% | 1016.6 hPa | 0 mm | - | 0 W/m² | - |
| 1778210284 | 4.44° C | 99% | 1016.4 hPa | 0 mm | - | 0 W/m² | - |
| 1778209744 | 4.44° C | 98% | 1016.3 hPa | 0 mm | - | 0 W/m² | - |
* Rain latest hour (hover to see other rain measurements)
** Current wind speed in m/s (hover to see current wind gust speed)